User: anonymous   Login
Location: Prairie State College
(41.5244°N, 87.6382°W)
Time: 03:56:13
(UTC-05:00)
Language:

Cosmos 1943 - Orbit

View from above orbital plane
View from above orbital plane
View from above satellite
View from above satellite

Ground track
Ground track

The orbit data is extracted from the following two-line orbital elements,

1 19119U 88039A   18111.73256671 +.00000300 +00000-0 +17910-3 0  9992
2 19119 071.0030 173.8214 0013225 302.2325 196.3243 14.15112576545476
Epoch (UTC): 21 April 2018 17:34:53
Eccentricity: 0.0013225
inclination: 71.0030°
perigee height: 832 km
apogee height: 851 km
right ascension of ascending node: 173.8214°
argument of perigee: 302.2325°
revolutions per day: 14.15112576
mean anomaly at epoch: 196.3243°
orbit number at epoch: 54547

The dashed part of the orbit path shows where the satellite is in the earth's shadow,  

DLR